LROP Weather Reports


time (UTC)temp
C
wind
direction
speed
KPH
gust
KPH
rain 1hr
cm
rain 24hr
cm
rain mn
cm
humidity
%
barometer
mb
20260902223302 21 10 16.1 0.0 0.00 0.00 0.00 73 1018.0
20260902221802 21 360 14.5 0.0 0.00 0.00 0.00 73 1018.0
20260902220302 21 360 14.5 0.0 0.00 0.00 0.00 73 1018.0
20260902214802 21 10 8.0 0.0 0.00 0.00 0.00 73 1018.0
20260902213301 21 10 8.0 0.0 0.00 0.00 0.00 73 1018.0
20260902211802 21 40 9.7 0.0 0.00 0.00 0.00 73 1018.0
20260902210302 21 40 9.7 0.0 0.00 0.00 0.00 73 1018.0
20260902204801 21 50 8.0 0.0 0.00 0.00 0.00 73 1017.0
20260902203302 21 50 8.0 0.0 0.00 0.00 0.00 73 1017.0
20260902201802 22 30 11.3 0.0 0.00 0.00 0.00 65 1017.0
20260902200317 22 30 11.3 0.0 0.00 0.00 0.00 65 1017.0
20260902194802 22 20 12.9 0.0 0.00 0.00 0.00 65 1018.0
20260902193302 22 20 12.9 0.0 0.00 0.00 0.00 65 1018.0
20260902191802 22 20 12.9 0.0 0.00 0.00 0.00 65 1017.0
20260902190302 22 20 12.9 0.0 0.00 0.00 0.00 65 1017.0
20260902184802 22 10 14.5 0.0 0.00 0.00 0.00 61 1017.0
20260902183301 22 10 14.5 0.0 0.00 0.00 0.00 61 1017.0
20260902181802 22 360 22.5 0.0 0.00 0.00 0.00 61 1017.0
20260902180301 22 360 22.5 0.0 0.00 0.00 0.00 61 1017.0
20260902174802 23 360 25.7 0.0 0.00 0.00 0.00 57 1017.0
20260902173302 23 360 25.7 0.0 0.00 0.00 0.00 57 1017.0
20260902171802 26 360 20.9 0.0 0.00 0.00 0.00 58 1017.0
20260902170302 26 360 20.9 0.0 0.00 0.00 0.00 58 1017.0
20260902164914 28 30 14.5 0.0 0.00 0.00 0.00 40 1016.0
20260902163302 28 30 14.5 0.0 0.00 0.00 0.00 40 1016.0
20260902161801 28 40 17.7 0.0 0.00 0.00 0.00 40 1016.0
20260902160313 28 40 17.7 0.0 0.00 0.00 0.00 40 1016.0
20260902154803 30 100 8.0 0.0 0.00 0.00 0.00 40 1016.0
20260902153301 30 100 8.0 0.0 0.00 0.00 0.00 40 1016.0
20260902151802 31 3.2 0.0 0.00 0.00 0.00 38 1016.0
20260902150302 31 3.2 0.0 0.00 0.00 0.00 38 1016.0
20260902144802 31 140 8.0 0.0 0.00 0.00 0.00 35 1016.0
20260902143303 31 140 8.0 0.0 0.00 0.00 0.00 35 1016.0
20260902141802 31 160 8.0 0.0 0.00 0.00 0.00 35 1017.0
20260902140302 31 160 8.0 0.0 0.00 0.00 0.00 35 1017.0
20260902134802 32 4.8 0.0 0.00 0.00 0.00 36 1017.0
20260902133301 32 4.8 0.0 0.00 0.00 0.00 36 1017.0
20260902131802 30 8.0 0.0 0.00 0.00 0.00 38 1017.0
20260902130302 30 8.0 0.0 0.00 0.00 0.00 38 1017.0
20260902124803 31 130 11.3 0.0 0.00 0.00 0.00 35 1018.0
20260902123302 31 130 11.3 0.0 0.00 0.00 0.00 35 1018.0
20260902121802 30 70 11.3 0.0 0.00 0.00 0.00 35 1018.0
20260902120302 30 70 11.3 0.0 0.00 0.00 0.00 35 1018.0
20260902114802 30 110 12.9 0.0 0.00 0.00 0.00 35 1018.0
20260902113302 30 110 12.9 0.0 0.00 0.00 0.00 35 1018.0
20260902111802 30 110 16.1 0.0 0.00 0.00 0.00 38 1018.0
20260902110303 30 110 16.1 0.0 0.00 0.00 0.00 38 1018.0
20260902104802 30 90 17.7 0.0 0.00 0.00 0.00 38 1019.0
20260902103301 30 90 17.7 0.0 0.00 0.00 0.00 38 1019.0
20260902101802 28 70 17.7 0.0 0.00 0.00 0.00 43 1019.0
20260902100308 28 70 17.7 0.0 0.00 0.00 0.00 43 1019.0
20260902094802 27 80 17.7 0.0 0.00 0.00 0.00 45 1019.0
20260902093302 27 80 17.7 0.0 0.00 0.00 0.00 45 1019.0
20260902091802 27 90 20.9 0.0 0.00 0.00 0.00 45 1019.0
20260902090401 27 80 24.1 0.0 0.00 0.00 0.00 48 1019.0
20260902084802 27 80 24.1 0.0 0.00 0.00 0.00 48 1019.0
20260902083302 27 80 24.1 0.0 0.00 0.00 0.00 48 1019.0
20260902081802 27 70 22.5 0.0 0.00 0.00 0.00 51 1019.0
20260902080302 27 70 22.5 0.0 0.00 0.00 0.00 51 1019.0
20260902074838 26 70 25.7 0.0 0.00 0.00 0.00 51 1019.0
20260902073302 26 70 25.7 0.0 0.00 0.00 0.00 51 1019.0
20260902071802 25 80 24.1 0.0 0.00 0.00 0.00 57 1019.0
20260902070301 25 80 24.1 0.0 0.00 0.00 0.00 57 1019.0
20260902064802 23 80 16.1 0.0 0.00 0.00 0.00 61 1019.0
20260902063303 23 80 16.1 0.0 0.00 0.00 0.00 61 1019.0
20260902061803 23 80 14.5 0.0 0.00 0.00 0.00 61 1019.0
20260902060302 23 80 14.5 0.0 0.00 0.00 0.00 61 1019.0
20260902054801 22 70 16.1 0.0 0.00 0.00 0.00 69 1019.0
20260902053302 22 70 16.1 0.0 0.00 0.00 0.00 69 1019.0
20260902051802 21 70 16.1 0.0 0.00 0.00 0.00 73 1019.0
20260902050303 21 70 16.1 0.0 0.00 0.00 0.00 73 1019.0
20260902044802 21 80 11.3 0.0 0.00 0.00 0.00 73 1019.0
20260902043302 21 80 11.3 0.0 0.00 0.00 0.00 73 1019.0
20260902041802 21 60 11.3 0.0 0.00 0.00 0.00 73 1019.0
20260902040306 21 60 11.3 0.0 0.00 0.00 0.00 73 1019.0
20260902034802 21 40 12.9 0.0 0.00 0.00 0.00 73 1018.0
20260902033303 21 40 12.9 0.0 0.00 0.00 0.00 73 1018.0
20260902031802 21 90 8.0 0.0 0.00 0.00 0.00 73 1019.0
20260902030302 21 90 8.0 0.0 0.00 0.00 0.00 73 1019.0
20260902024802 21 50 9.7 0.0 0.00 0.00 0.00 73 1018.0
20260902023302 21 50 9.7 0.0 0.00 0.00 0.00 73 1018.0
20260902021803 21 80 11.3 0.0 0.00 0.00 0.00 73 1018.0
20260902020302 21 80 11.3 0.0 0.00 0.00 0.00 73 1018.0
20260902014801 21 70 12.9 0.0 0.00 0.00 0.00 73 1018.0
20260902013301 21 70 12.9 0.0 0.00 0.00 0.00 73 1018.0
20260902011801 21 50 11.3 0.0 0.00 0.00 0.00 73 1018.0
20260902010302 21 50 11.3 0.0 0.00 0.00 0.00 73 1018.0
20260902004801 21 70 12.9 0.0 0.00 0.00 0.00 73 1018.0
20260902003301 21 70 12.9 0.0 0.00 0.00 0.00 73 1018.0
20260902001803 22 60 12.9 0.0 0.00 0.00 0.00 69 1018.0
20260902000308 22 60 12.9 0.0 0.00 0.00 0.00 69 1018.0
20260901234804 22 70 11.3 0.0 0.00 0.00 0.00 69 1018.0
20260901233302 22 70 11.3 0.0 0.00 0.00 0.00 69 1018.0
20260901231802 22 70 11.3 0.0 0.00 0.00 0.00 69 1018.0
20260901230318 22 70 11.3 0.0 0.00 0.00 0.00 69 1018.0
20260901224802 22 70 14.5 0.0 0.00 0.00 0.00 61 1018.0